map of BVB home
BVB - Airport
Location
City:  Boa Vista, Roraima, Brazil
Name:Atlas Brasil Cantanhede Airport
ICAO:SBBV
IATA:BVB

Details
Type:Airport (Aerodrome, Airfield)
Use:Public/Civil, International (customs port of entry)
Latitude:250'47"N (2.846311)
Longitude:6041'24"W (-60.690068)
Datum:WGS 1984
Elevation:276 ft (84 m)
Variation:15.35W (WMM2015 magnetic declination)
-0.09 annual change
Runways:1
Longest:8858 × 148 ft (2700 × 45 m), paved

Time
Time Zone:UTC-4
Local Time:

Weather
METAR:SBBV 240800Z 35002KT 9999 FEW020 FEW025TCU BKN070 26/24 Q1011
TAF:SBBV 240400Z 2406/2506 14005KT 9999 FEW030 FEW035TCU TN24/2408Z TX33/2417Z
BECMG 2409/2411 09005KT SCT030
BECMG 2420/2422 12010KT BKN030 FEW035TCU
BECMG 2501/2503 16008KT FEW030
RMK PEN

Related Locations
Nearby:
Farthest:WAWJ: 12431 mi / 20006 km
Tampa Padang [Tampa Padang Airport], SR, ID

Find:

   beyond  
but within

Other Information
Maps:
NOTAMs:
Links:
Sources:

  
flag of Brazil
flag of Roraima
  

Sectional Chart

Flight Planning
at skyvector.com

Satellite Image

Google Maps Satellite view

 

Copyright © 2004-2017 Karl L. Swartz. All rights reserved.
The Great Circle Mapper name and logo are trademarks of the Great Circle Mapper.
All other trademarks mentioned herein belong to their respective owners.
Please see credits for attibutions and further copyright information.

  Follow gcmap on Facebook Follow gcmap on Twitter Follow gcmap on Google+ GCmap on LinkedIn

hCard Microformat

Geo Microformat